Miscellaneous Local Product
Issued by NWS North Platte, NE

Home | Current Version | Previous Version | Text Only | Print | Product List | Glossary On
Versions: 1 2 3 4 5 6 7 8 9 10 11 12 13 14 15 16 17 18 19 20 21 22 23 24 25 26 27 28 29 30 31 32 33 34 35 36 37 38 39 40 41 42 43 44 45 46 47 48 49 50
000
AXUS43 KLBF 291510
MISLBF


WESTERN AND NORTH CENTRAL NEBRASKA HOURLY WEATHER ROUNDUP
NATIONAL WEATHER SERVICE NORTH PLATTE NE
1000 AM CDT FRI AUG 29 2014

***STATIONS NOT REPORTING VARIABLES SUCH AS SKY/WEATHER OR
PRESSURE ARE PROVIDED BY THE NEBRASKA DEPARTMENT OF
ROADS...RAWS...AND APRS NETWORKS...AND ARE NOT UNDER
NATIONAL WEATHER SERVICE QUALITY CONTROL***

...OBSERVATIONS IN AND NEAR THE EASTERN PANHANDLE OF NEBRASKA...

CITY           SKY/WX    TMP DP  RH WIND       PRES   REMARKS
PINE RIDGE     MOSUNNY   65  57  75 SW8       29.99R
CHADRON        MOSUNNY   68  56  65 W7        29.99R
ALLIANCE       SUNNY     68  54  60 NW3       29.98S
SIDNEY         SUNNY     69  51  52 NW9       30.02S
WHITECLAY        N/A     65  55  70 CALM        N/A
RUSHVILLE        N/A     69  50  49 N24         N/A
GORDON           N/A     72  56  56 NW18        N/A
CRESCENT LAKE    N/A     69  56  62 N6          N/A
LISCO            N/A     66  55  68 W7          N/A
BIG SPRINGS      N/A     58  56  92 W5          N/A
$$

...OBSERVATIONS IN NORTH CENTRAL NEBRASKA...

CITY           SKY/WX    TMP DP  RH WIND       PRES   REMARKS
VALENTINE      SUNNY     69  59  70 W6        29.88F
THEDFORD       SUNNY     69  59  69 W8        29.91S
AINSWORTH      SUNNY     68  60  75 NW6       29.88S
O`NEILL        CLOUDY    67  67  99 NW7       29.84S FOG
ORD            MOSUNNY   70  63  78 NW9       29.83F
BROKEN BOW     SUNNY     71  62  73 NW7       29.87S
SPRINGVIEW       N/A     64  61  91 W3          N/A
ROSE             N/A     70  68  93 W3          N/A
NEWPORT          N/A     70  66  88 W7          N/A
SARGENT          N/A     67  64  90 CALM        N/A
COMSTOCK         N/A     76  69  76 W6          N/A
CHAMBERS         N/A     76  69  78 W5          N/A
EWING            N/A     66  65  97 N3          N/A
$$

...OBSERVATIONS IN SOUTHWEST NEBRASKA AND FAR NORTHEAST COLORADO...

CITY           SKY/WX    TMP DP  RH WIND       PRES   REMARKS
WRAY             N/A     69  55  59 W7        29.99
HOLYOKE        FAIR      72  55  56 NW6       29.98F
IMPERIAL       SUNNY     66  56  70 NW9       29.96S
OGALLALA       SUNNY     64  59  83 W8        29.96S
NORTH PLATTE   SUNNY     66  56  70 W10       29.92S
MCCOOK         SUNNY     67  57  70 W6        29.92F
LEXINGTON      SUNNY     67  62  82 W9        29.89S
PAXTON           N/A     58  56  92 CALM        N/A
SUTHERLAND       N/A     65  58  77 W5          N/A
BRADY            N/A     65  59  80 S3          N/A
GOTHENBURG       N/A     62  55  79 W5          N/A
CALLAWAY         N/A     62  61  96 NW10        N/A
$$

...SOME WEATHER OBSERVATIONS FROM AROUND THE REGION...

CITY           SKY/WX    TMP DP  RH WIND       PRES   REMARKS
DENVER         MOSUNNY   67  48  50 SW9       30.11S
LARAMIE        MOSUNNY   54  47  77 SE5       30.25R
CHEYENNE       PTSUNNY   67  44  43 NW22G28   30.15R
SCOTTSBLUFF    MOSUNNY   62  55  77 W7        30.02R
RAPID CITY     MOSUNNY   71  53  52 N36G44    29.97R
PIERRE         FOG       65  65 100 CALM      29.82S VSB<1/4
WINNER         FAIR      71  64  78 NW6       29.85S
SIOUX FALLS    CLOUDY    70  68  93 S5        29.79S
OMAHA          CLOUDY    73  69  87 S12       29.82R
GRAND ISLAND   CLOUDY    68  64  87 CALM      29.86R
KANSAS CITY    PTSUNNY   80  67  64 SW10      29.88R
WICHITA        PTSUNNY   73  64  73 SW8       29.90S
HAYS           MOSUNNY   66  57  72 NW10      29.91R
LIBERAL        SUNNY     72  55  56 NW15      30.00S
GOODLAND       SUNNY     69  55  60 NW10      30.00R
$$



USA.gov is the U.S. government's official web portal to all federal, state and local government web resources and services.